Location: Newark
(47.5500°N, 8.6167°E)
Time: 19:32:52
(UTC+00:00)

Envisat - Pass Details

Date: 27 January 2020
Orbit: 764 x 766 km, 98.1° (Epoch: 17 February)

Event Time Altitude Azimuth Distance (km) Brightness Sun altitude
Rises 17:53:47 0° 189° (S) 3,220 6.5 -16.1°
Reaches altitude 10° 17:56:16 10° 198° (SSW) 2,298 5.8 -16.5°
Maximum altitude 18:00:53 35° 264° (W) 1,225 4.7 -17.3°
Drops below altitude 10° 18:05:32 10° 330° (NNW) 2,313 5.8 -18.0°
Sets 18:08:03 0° 339° (NNW) 3,244 6.4 -18.5°
